Location: Abeytas
(34.4676°N, 106.8114°W)
Time: 15:48:24
(UTC+00:00)

Daily predictions for brighter satellites

Satellite Brightness Start Highest point End
(mag) Time Altitude Azimuth Time Altitude Azimuth Time Altitude Azimuth
Hubble Space Telescope 2.8 12:09:04 15° S 12:10:08 17° SSE 12:12:35 10° ESE
USA-17 4.4 12:11:56 65° N 12:12:21 78° ENE 12:16:10 10° SSE
Cosmos 2360 Rocket 3.7 12:07:45 10° S 12:12:50 36° ESE 12:17:55 10° NE
DELTA 2 R/B (1) 3.5 12:11:06 40° WSW 12:13:09 87° SSE 12:18:44 10° ENE
Cosmos 2278 4.0 12:07:43 10° S 12:13:17 66° ESE 12:18:52 10° NNE
Cosmos 1400 Rocket 3.2 12:14:22 43° NNW 12:14:22 43° NNW 12:17:10 10° N
Cosmos 1300 Rocket 3.4 12:10:02 10° S 12:14:25 78° W 12:18:50 10° N
Cosmos 2237 4.5 12:17:25 34° WSW 12:19:17 45° WNW 12:24:44 10° N
Cosmos 2221 Rocket 3.5 12:15:05 10° NNW 12:19:32 61° W 12:23:56 10° S
Intercosmos 25 Rocket 4.2 12:22:12 30° SW 12:22:12 30° SW 12:24:41 10° SSW
Cosmos 374 Rocket 4.2 12:22:12 43° WSW 12:23:15 61° WNW 12:26:59 10° NNE
GP-B 3.9 12:19:29 10° NNE 12:23:45 52° E 12:28:00 10° SSE
Cosmos 2263 Rocket 2.6 12:25:27 27° WNW 12:27:38 36° WSW 12:32:42 10° S
Cosmos 2219 3.2 12:24:24 10° NNW 12:30:01 62° WSW 12:35:33 10° S
Cosmos 2173 Rocket 4.4 12:25:43 10° S 12:32:00 69° E 12:38:19 10° NNE
Exosat Rocket 4.4 12:35:08 25° W 12:35:19 25° W 12:39:28 10° SSW
IRS-1D 3.4 12:31:12 10° N 12:36:16 64° WNW 12:41:12 10° SSW
Cosmos 1346 Rocket 3.2 12:35:02 10° N 12:38:40 59° E 12:42:17 10° SSE
Aureole 1 Rocket 4.3 12:32:14 10° SW 12:39:17 50° WNW 12:45:34 10° N
Cosmos 1538 Rocket 4.4 12:35:15 10° N 12:40:30 66° ENE 12:45:40 10° SSE
H-2A R/B 4.2 12:39:48 10° NNW 12:42:58 25° WNW 12:43:16 25° W
Cosmos 2100 Rocket 4.0 12:45:29 10° S 12:51:50 79° W 12:58:12 10° N
Cosmos 372 Rocket 4.5 12:49:52 10° SW 12:54:29 35° WNW 12:59:10 10° N
Cosmos 2082 4.0 12:49:49 10° NW 12:55:12 45° WSW 13:00:32 10° S
Cosmos 1602 3.0 12:52:33 10° NNW 12:55:13 46° W 12:57:52 10° S
Cosmos 2058 4.0 12:52:26 10° N 12:56:13 45° E 12:59:59 10° SSE
SL-16 R/B 2.6 12:53:51 10° SW 12:59:07 40° WNW 13:04:26 10° N
SMAP 4.4 12:57:26 10° NNE 13:01:54 44° E 13:06:19 10° S
COSMO-SKYMED 1 2.5 13:03:49 10° S 13:07:50 58° W 13:11:53 10° NNW
EO 1 Delta rocket 4.2 13:01:55 10° N 13:07:57 65° WNW 13:12:51 10° SSW
Cosmos 1844 3.9 13:02:35 10° NNW 13:08:14 77° ENE 13:13:55 10° SSE
Cosmos 1862 3.6 13:05:56 10° N 13:09:28 62° E 13:13:00 10° SSE
Cosmos 1975 Rocket 3.1 13:07:40 10° NNW 13:11:50 51° W 13:16:00 10° S
Meteor 2-17 Rocket 4.5 13:06:23 10° NNW 13:12:22 61° W 13:18:20 10° S
Cosmos 1459 Rocket 4.1 13:13:09 10° SSW 13:18:59 51° W 13:24:54 10° N
CBERS-1 4.1 13:14:00 10° NNE 13:19:08 87° ESE 13:24:14 10° SSW
Cosmos 2333 Rocket 2.9 13:16:16 10° SW 13:21:25 34° WNW 13:26:36 10° N
Cosmos 2219 Rocket 2.2 13:19:45 10° SSW 13:25:23 85° WNW 13:31:02 10° NNE
Cosmos 2322 Rocket 2.6 13:21:30 10° SW 13:26:50 42° WNW 13:32:12 10° N
